Regional Weather Roundup
Issued by NWS

Home | Current Version | Previous Version | Graphics & Text | Print | Product List | Glossary On
Versions: 1 2 3 4 5 6 7 8 9 10 11 12 13 14 15 16 17 18 19 20 21 22 23 24 25 26 27 28
000
ASUS45 KCYS 232310
RWRWY

WYOMING REGIONAL WEATHER ROUNDUP
NATIONAL WEATHER SERVICE CHEYENNE WY
400 PM MST TUE JAN 23 2018

NOTE:  "FAIR" INDICATES FEW OR NO CLOUDS BELOW 12,000 FEET
WITH NO SIGNIFICANT WEATHER AND/OR OBSTRUCTIONS TO VISIBILITY.

WYZ001-240000-
YELLOWSTONE NATIONAL PARK

CITY           SKY/WX    TMP DP  RH WIND       PRES   REMARKS
LK YELLOWSTONE   N/A     18  11  74 CALM      30.20R
W YELLOWSTONE  NOT AVBL

$$
WYZ002>013-054>058-071-098>099-240000-
NORTHERN WYOMING

CITY           SKY/WX    TMP DP  RH WIND       PRES   REMARKS
JACKSON        CLOUDY    27  18  69 S12       30.23R WCI  17
CODY           FAIR      34  12  40 W12G20    30.14R WCI  25
GREYBULL       FAIR      29  16  58 SE5       30.20F WCI  24
WORLAND        FAIR      28  19  69 S7        30.19F WCI  21
SHERIDAN       FAIR      33  15  47 S5        30.16S WCI  29
BUFFALO        FAIR      33  10  38 SE6       30.17R WCI  28
GILLETTE       FAIR      32  17  54 W9        30.18R WCI  24
HULETT         FAIR      34  19  55 W6        30.17R WCI  29
NEWCASTLE      FAIR      32  19  59 NW8       30.20R WCI  25

$$
WYZ014>020-022>026-101>103-240000-
CENTRAL WYOMING

CITY           SKY/WX    TMP DP  RH WIND       PRES   REMARKS
BIG PINEY      FAIR      28  11  48 VRB3      30.22S
PINEDALE       FAIR      25  12  58 NW6       30.23R WCI  18
DUBOIS         FAIR      28   9  43 NW18G29   30.12S WCI  16
LANDER         FAIR      19  12  74 CALM      30.16F
RIVERTON       FAIR      18   8  65 N5        30.18F WCI  11
CASPER         FAIR      23  15  71 MISG      30.21S
DOUGLAS        FAIR      24  16  71 W7        30.21R WCI  16

$$
WYZ021-027>030-104>119-240000-
SOUTHERN WYOMING

CITY           SKY/WX    TMP DP  RH WIND       PRES   REMARKS
EVANSTON       PTSUNNY   28  20  71 SW8       30.25F WCI  20
FORT BRIDGER   FAIR      30  19  65 W14       30.29S WCI  19
ROCK SPRINGS   FAIR      25  17  72 SW8       30.26R WCI  16
DIXON            N/A     29  17  60 SW8       30.33R WCI  21
RAWLINS        FAIR      25  16  68 W25G32    30.23R WCI   9
SARATOGA       FAIR      27  14  59 SW16      30.25R WCI  14
LARAMIE        FAIR      19  12  74 W9        30.16R WCI   8
CHEYENNE       FAIR      29  15  56 N9        30.18S WCI  20
TORRINGTON     FAIR      33  19  56 W7        30.23R WCI  27

$$




USA.gov is the U.S. government's official web portal to all federal, state and local government web resources and services.